Location: Goettingen
(51.5300°N, 9.9433°E)
Time: 20:54:55
(UTC+02:00)

ISS - Pass Details

Date: 14 July 2019
Orbit: 409 x 418 km, 51.6° (Epoch: 20 July)

Event Time Altitude Azimuth Distance (km) Brightness Sun altitude
Exits shadow 03:08:58 - 271° (W) 2,119 -0.4 -13.3°
Reaches altitude 10° 03:10:31 10° 272° (W) 1,483 -1.2 -13.2°
Maximum altitude 03:13:51 86° 1° (N) 418 -3.8 -13.0°
Drops below altitude 10° 03:17:10 10° 91° (E) 1,479 -0.7 -12.8°
Sets 03:19:15 0° 92° (E) 2,339 0.4 -12.6°
